Weather Roundup
Issued by NWS

Home | Current Version | Previous Version | Text Only | Print | Product List | Glossary On
Versions: 1 2 3 4 5 6 7 8 9 10 11 12 13 14 15 16 17 18 19 20 21 22 23 24 25 26 27 28 29 30 31 32 33 34 35 36 37 38 39 40 41 42 43 44 45 46 47 48 49 50
000
NZUS93 KARX 041310
HRRWXR

CURRENT HOURLY OBSERVATIONS ACROSS
MUCH OF THE UPPER MISSISSIPPI VALLEY
NATIONAL WEATHER SERVICE LA CROSSE WI
800 AM CDT TUE AUG 04 2015


...SOUTHEAST MINNESOTA...


CITY           SKY/WX    TMP DP  RH WIND       PRES   REMARKS
ROCHESTER      MOSUNNY   61  57  87 SW6       30.04R
ROCHESTER/MAYO FAIR      62  55  77 CALM      30.03R
WINONA         SUNNY     61  55  82 CALM      30.00R
AUSTIN         PTSUNNY   61  55  82 CALM      30.03R
ALBERT LEA     PTSUNNY   63  57  82 CALM      30.04R
DODGE CENTER   MOSUNNY   57  55  94 SW3       30.03R
PRESTON        MOSUNNY   61  55  81 CALM      30.03R
OWATONNA       MOSUNNY   59  55  88 CALM      30.03R
FARIBAULT      MOSUNNY   61  55  82 SW7       30.03R
$$

...ELSEWHERE IN MINNESOTA...


CITY           SKY/WX    TMP DP  RH WIND       PRES   REMARKS
MINNEAPOLIS    MOSUNNY   65  57  75 NW5       30.01R
INTNL FALLS    MOSUNNY   59  55  87 N10       29.96R
DULUTH         SUNNY     59  52  77 NW3       29.95R
RED WING       SUNNY     61  57  88 CALM      29.99S
REDWOOD FALLS  PTSUNNY   61  54  77 W5        30.04R
MANKATO        PTSUNNY   59  54  82 W5        30.04R
WORTHINGTON    CLOUDY    59  54  82 CALM      30.06R
FAIRMONT       PTSUNNY   61  52  72 CALM      30.04R
$$

...SOUTHWEST WISCONSIN...


CITY           SKY/WX    TMP DP  RH WIND       PRES   REMARKS
LA CROSSE      SUNNY     63  56  78 S5        29.99R
PRAIRIE DU CHI SUNNY     61  54  75 CALM      30.01R
BOSCOBEL       SUNNY     62  56  80 S3        30.00R
LONE ROCK      MOSUNNY   60  56  86 W6        30.00R
PLATTEVILLE    SUNNY     61  58  89 W5        30.00R
FORT MC COY    SUNNY     58  52  82 CALM      30.00R
CAMP DOUGLAS   SUNNY     63  63 100 W7        29.99R
VIROQUA        FAIR      60  57  88 CALM      30.01R
WIS DELLS      SUNNY     63  53  68 NW5       29.98R
$$

...ELSEWHERE IN WISCONSIN...


CITY           SKY/WX    TMP DP  RH WIND       PRES   REMARKS
MILWAUKEE      MOSUNNY   69  53  56 W7        29.94R
MADISON        MOSUNNY   65  55  70 W5        29.97R
GREEN BAY      SUNNY     65  58  78 NW7       29.92R
EAU CLAIRE     SUNNY     61  54  77 W6        29.99R
BLACK RVR FLS  FAIR      61  55  80 SW3       29.99R
MEDFORD        SUNNY     58  54  84 NW5       29.96R
WAUSAU         SUNNY     62  53  72 NW10      29.93R
WIS RAPIDS     SUNNY     63  54  72 W5        29.98R
MARSHFIELD     SUNNY     63  52  67 NW6       29.96R
RICE LAKE      SUNNY     58  54  87 CALM      30.00R
$$

...NORTHEAST IOWA...


CITY           SKY/WX    TMP DP  RH WIND       PRES   REMARKS
DECORAH        MOSUNNY   59  54  82 CALM      30.02R
MASON CITY     PTSUNNY   63  57  81 NW3       30.05R
CHARLES CITY   PTSUNNY   59  59 100 CALM      30.03S
OELWEIN        MOSUNNY   61  59  94 N3        30.02S
$$

...ELSEWHERE IN IOWA...


CITY           SKY/WX    TMP DP  RH WIND       PRES   REMARKS
DES MOINES     CLOUDY    70  60  70 VRB3      30.00R
IOWA CITY      PTSUNNY   65  59  81 CALM      30.00S
FORT DODGE     CLOUDY    63  57  82 CALM      30.05R
$$

...NORTHERN ILLINOIS...


CITY           SKY/WX    TMP DP  RH WIND       PRES   REMARKS
CHICAGO-OHARE  MOSUNNY   68  57  68 W5        29.96R
CHICAGO-MIDWAY MOSUNNY   70  56  61 W3        29.96R
MOLINE         MOSUNNY   67  61  81 W3        29.98F
ROCKFORD       PTSUNNY   62  57  83 S3        29.99R
PEORIA         MOSUNNY   68  59  73 CALM      30.00R
$$

NOTE: "FAIR" INDICATES FEW OR NO CLOUDS BELOW 12,000 FEET WITH NO
SIGNIFICANT WEATHER AND/OR OBSTRUCTIONS TO VISIBILITY. WIND
SPEEDS ARE IN MILES-PER-HOUR.



USA.gov is the U.S. government's official web portal to all federal, state and local government web resources and services.